Location: Enborne
(51.3833°N, 1.3667°W)
Time: 18:50:33
(UTC+00:00)

Cosmos 1844 Rocket - Pass Details

Date: 17 January 2021
Orbit: 826 x 843 km, 71.0° (Epoch: 06 March)

Event Time Altitude Azimuth Distance (km) Brightness Sun altitude
Rises 20:43:49 0° 235° (SW) 3,394 6.3 -38.8°
Reaches altitude 10° 20:46:25 10° 243° (WSW) 2,461 5.5 -39.2°
Enters shadow 20:48:30 21° 256° (WSW) 1,791 4.8 -39.5°
